Вернуться в каталог

ONEWEB-0432

АктивенСвязьPO
NORAD 50502·PAYLOAD·🇬🇧 United Kingdom

Запущен Dec 27, 2021 с Baikonur Cosmodrome

Loading…

Ближайшие Пролёты (ближайшие 24 часа)

TLE

СвежийSource: CelesTrak SupGP

Эпоха: Sep 14, 2026, 17:11 UTC

1 50502C 21132AK  26257.71616157 -.00000230  00000+0 -58403-3 0  2573
2 50502  87.9174 317.6591 0001514  95.2086  14.9884 13.18689313    11

Отслеживайте ONEWEB-0432 в реальном времени с AllMySat

Download on the App Store